Theta_e
309 311 313 315 316 316 317 318 318 318 318 318 317 317 316 314 314 312 311 310 309 308 308 307 306 305 303 301 300 300 301 301 301 303 306 304 306 311 316 322 325 325 325 325 326 326 327 327 326 326 326 325 325 327 328 329 328 329 331 333 333 333 332 332 332 332 332 331 328 328 329 329 328 327 327 327 327 326 327 328 327 329 329 327 329 327 325 324
308 309 310 312 314 315 316 317 317 318 318 318 317 317 317 316 315 314 313 311 310 309 309 309 308 307 305 302 301 300 300 301 302 303 303 304 307 308 309 313 319 322 324 325 326 327 328 328 327 326 326 326 325 326 328 328 329 329 331 333 332 332 332 331 331 331 331 331 330 328 328 328 328 328 327 328 329 328 328 328 327 329 330 328 328 326 325 325
308 308 308 310 312 314 315 316 316 317 318 318 318 317 317 317 316 316 315 312 311 310 309 309 308 308 306 304 302 301 301 304 305 305 304 306 305 305 305 306 308 312 318 322 324 327 329 328 327 327 326 326 325 326 327 327 328 328 331 332 332 331 330 331 330 330 331 331 331 330 329 328 329 329 328 329 329 330 330 330 328 328 330 330 329 327 326 325
308 308 308 308 309 311 313 314 316 316 317 318 318 318 317 317 316 316 316 315 313 311 310 310 309 309 306 305 303 302 305 308 310 310 309 309 308 308 306 304 304 304 310 317 322 325 329 329 327 327 326 326 326 325 326 326 328 328 329 330 330 329 330 330 330 330 330 330 330 330 330 329 329 329 329 329 329 330 330 330 329 328 330 331 330 329 328 327
307 308 308 308 308 309 310 312 314 315 316 317 318 318 318 318 317 317 317 316 316 313 311 310 310 309 306 306 304 305 308 310 315 317 316 316 315 314 311 307 305 304 305 311 319 324 327 328 327 327 327 326 326 325 326 326 327 327 328 329 328 329 329 329 329 329 329 329 330 329 329 330 329 329 328 328 329 330 329 329 328 327 330 331 331 331 329 327
307 307 307 308 308 308 308 310 312 314 315 316 316 318 318 318 318 317 317 317 317 315 313 311 310 308 306 308 305 306 311 311 318 321 319 322 320 319 319 316 311 306 306 310 319 325 326 327 326 327 327 326 326 325 325 325 326 326 327 327 327 328 328 328 329 329 329 329 329 329 329 329 329 329 329 329 329 329 329 329 329 328 328 329 331 332 330 327
306 306 307 307 307 308 308 308 310 312 313 314 315 316 317 318 319 318 317 317 317 317 315 312 310 308 307 310 307 308 313 314 320 321 319 321 320 319 319 319 316 308 310 316 321 325 325 325 325 326 326 326 326 325 325 325 325 326 326 326 326 327 327 328 328 328 329 329 328 329 329 329 329 328 328 329 329 329 329 328 328 328 328 327 329 331 330 329
306 306 306 307 306 307 307 308 309 310 311 313 313 315 316 317 318 319 318 317 317 317 316 313 311 308 308 311 310 311 313 310 315 320 319 319 319 320 319 321 317 308 312 320 321 323 324 324 324 324 325 325 326 325 325 324 324 325 325 326 325 326 327 327 328 328 328 329 329 328 328 328 329 328 328 329 329 329 329 328 328 328 328 327 327 328 329 330
306 306 306 306 306 307 307 307 308 309 310 311 311 313 314 316 317 318 319 318 318 317 317 315 311 308 308 312 312 314 314 308 310 314 316 317 318 322 324 325 320 307 312 321 322 323 323 323 323 323 324 324 325 325 325 324 324 324 324 325 325 326 327 326 326 327 327 329 329 328 328 328 329 328 328 328 329 329 329 329 328 328 329 328 328 328 328 330
305 306 306 306 306 306 307 307 307 308 308 309 310 310 312 314 315 317 319 318 318 317 317 316 312 308 308 311 314 314 313 311 311 309 311 315 316 320 323 326 323 311 313 321 322 323 323 323 323 322 322 323 323 324 324 324 324 323 324 324 324 325 326 326 325 325 326 327 328 328 328 328 328 328 328 328 329 329 329 329 329 329 329 329 329 328 328 329
305 305 305 306 306 306 306 306 307 307 307 308 308 309 310 312 314 315 317 318 319 318 318 317 313 309 308 312 314 313 313 313 314 311 308 309 313 318 320 324 325 318 317 321 322 323 323 323 323 322 322 322 322 323 323 323 324 324 324 324 324 324 324 325 325 325 325 326 327 327 327 328 328 328 328 328 329 329 329 329 329 329 329 329 329 328 329 329
305 305 305 305 306 306 306 306 307 307 307 307 307 308 308 310 312 313 315 317 318 319 318 317 314 309 308 312 314 313 313 315 317 314 310 307 309 314 317 320 324 323 321 322 322 322 323 323 323 323 323 322 322 322 322 322 323 323 323 323 323 323 323 324 324 325 325 325 326 326 327 327 327 327 327 327 328 328 329 329 329 328 329 329 328 329 329 329
305 305 305 305 305 306 306 306 307 307 307 307 307 307 307 308 310 311 313 315 317 318 319 318 316 311 309 312 313 312 314 316 317 316 313 309 309 312 313 315 321 325 324 323 323 321 322 324 324 324 324 324 323 321 322 322 323 323 322 323 323 324 324 323 323 323 324 325 324 326 328 328 326 326 326 326 327 327 328 328 328 328 328 329 329 329 329 329
305 305 306 305 305 305 306 306 306 307 307 307 307 307 307 307 308 309 310 313 315 317 318 318 316 312 311 312 312 312 313 315 315 315 314 311 313 315 312 311 317 322 323 324 325 324 324 324 324 325 325 325 324 322 322 322 322 322 322 323 323 325 324 322 322 322 323 324 323 325 327 327 325 325 325 325 326 327 328 328 328 328 328 329 328 329 329 329
305 305 306 305 306 306 306 306 306 307 307 307 307 307 308 308 308 308 309 311 313 315 317 318 316 313 313 312 311 312 313 314 315 314 314 313 317 319 314 313 314 317 319 322 324 325 325 325 324 325 324 324 323 322 323 322 321 322 323 325 324 325 324 321 321 322 322 323 323 325 327 326 325 324 324 324 325 326 327 328 328 328 328 329 329 329 329 329
304 305 306 305 306 306 306 306 306 306 307 307 307 307 308 308 308 309 309 310 311 312 315 318 317 314 313 313 312 312 312 314 314 314 315 314 316 319 319 318 317 317 320 321 322 323 324 325 325 325 324 322 322 322 323 323 322 322 323 325 325 324 324 322 322 321 321 323 323 324 326 327 325 324 324 324 324 324 325 326 327 328 329 328 329 328 328 329
304 304 305 306 306 306 306 306 306 306 306 307 307 307 307 308 309 309 309 310 311 311 313 316 317 314 313 314 314 313 312 314 314 313 315 314 313 317 319 319 319 319 321 321 322 323 324 325 325 325 324 323 321 321 323 323 322 322 322 323 323 323 323 322 322 322 321 322 323 324 325 326 326 324 324 323 324 324 325 325 325 327 328 328 328 328 327 328
304 304 305 306 306 305 306 306 306 306 306 307 307 307 307 308 309 309 310 310 311 312 313 315 316 315 314 314 314 315 313 313 313 313 315 315 313 316 317 318 319 320 321 322 322 323 323 323 323 325 325 324 322 321 322 322 321 322 322 323 323 322 322 321 321 322 322 322 323 324 325 325 326 325 324 324 323 324 325 325 325 326 327 328 327 327 327 327
303 304 304 305 305 305 305 305 306 306 306 307 307 307 307 308 309 309 310 311 312 314 314 315 316 315 314 313 313 315 315 313 313 312 314 315 312 315 316 315 318 321 322 322 321 322 322 323 324 325 326 325 323 322 321 321 320 321 321 321 322 322 322 322 321 322 323 325 324 324 325 325 325 325 324 324 324 324 323 323 325 326 326 326 326 326 326 326
303 303 304 304 305 305 305 305 305 306 306 307 307 307 308 309 310 310 310 311 312 313 314 315 316 314 313 313 313 314 315 314 314 313 313 314 312 315 315 313 318 321 321 321 321 322 322 323 324 323 324 324 323 322 320 320 320 320 321 321 321 322 322 322 322 322 322 324 325 325 325 325 325 325 324 324 324 324 323 323 323 324 324 324 325 326 325 325
303 303 304 304 305 305 305 305 305 306 306 307 307 308 309 309 310 310 310 311 311 311 313 315 315 314 313 313 313 314 315 315 314 313 312 313 312 314 315 314 318 320 319 320 321 321 322 323 323 321 322 322 322 322 321 321 321 320 321 321 321 322 322 322 322 323 322 323 325 325 325 324 324 324 323 323 323 323 323 323 323 323 324 324 324 325 325 325
302 303 303 304 304 304 304 304 305 306 306 306 307 307 308 308 308 310 310 311 311 310 311 313 314 314 313 314 313 313 315 315 315 314 313 313 312 313 315 314 316 317 317 319 319 321 323 323 321 320 321 321 321 322 321 321 321 321 322 321 322 321 321 321 321 321 321 322 323 323 323 322 322 322 322 322 322 322 322 322 323 323 324 324 324 324 324 324
302 303 303 303 303 304 304 304 304 305 306 306 307 307 307 307 308 309 310 311 312 311 311 312 313 313 313 314 314 313 315 315 315 315 314 313 312 313 314 314 314 315 317 319 319 321 322 321 320 320 320 321 322 322 323 323 323 323 322 322 322 321 322 322 321 320 321 321 321 322 322 322 321 322 321 321 321 321 322 321 322 322 323 324 324 324 324 324
302 302 303 303 303 303 304 304 304 305 305 306 306 306 306 307 308 308 310 311 311 312 311 311 312 313 313 313 313 313 314 314 314 315 314 313 312 312 313 312 313 314 316 318 318 318 319 318 318 319 319 320 321 322 322 323 323 324 323 323 323 322 322 322 321 321 320 321 321 322 324 323 322 322 321 321 321 321 321 321 321 321 321 322 323 324 324 324
302 302 303 302 302 303 303 304 304 305 305 305 306 306 306 307 307 308 309 310 310 311 312 312 312 313 313 313 313 313 314 314 314 314 313 313 313 312 312 311 312 313 315 317 318 317 317 316 316 318 319 320 321 322 322 323 323 324 324 324 323 322 323 322 322 323 323 323 322 322 325 324 322 323 322 321 321 321 321 320 320 321 320 321 322 323 324 324
302 302 303 302 302 303 303 304 304 304 305 305 305 305 306 307 307 308 309 310 310 311 313 313 313 314 313 312 313 313 314 314 314 314 313 313 313 312 311 312 311 312 314 315 317 317 316 315 315 316 318 320 321 321 321 322 323 323 323 324 324 323 324 324 324 325 325 325 323 322 325 325 323 322 322 321 322 322 321 321 320 321 321 321 322 322 323 323
302 301 302 303 302 303 304 304 304 304 305 305 304 305 306 307 308 308 309 309 310 311 312 312 313 313 313 313 313 313 314 314 313 314 314 313 313 312 311 312 311 311 313 314 316 317 316 316 316 316 317 319 320 320 321 321 322 322 322 324 325 324 325 325 325 325 325 325 324 323 325 326 324 322 321 321 322 322 322 322 321 321 321 321 321 321 321 322
301 301 302 303 303 303 304 304 304 305 304 304 304 305 306 307 307 308 308 309 311 312 311 311 312 312 312 314 313 312 314 314 313 313 314 313 313 312 311 313 312 311 311 314 315 316 316 317 317 317 317 318 318 318 320 320 321 321 323 326 326 324 325 325 325 325 324 325 326 324 324 326 324 321 321 322 322 321 321 321 321 320 320 321 321 321 321 322
301 301 301 302 303 303 303 304 304 304 303 304 305 305 305 307 307 308 308 309 311 312 311 312 312 311 312 313 313 312 313 313 313 313 314 314 313 313 312 312 312 312 312 313 314 315 316 316 316 317 318 318 317 318 319 320 320 320 323 326 325 324 325 325 325 325 325 326 326 324 324 326 325 321 321 323 321 321 321 321 321 320 320 321 321 321 322 323
301 301 301 302 303 303 303 303 304 303 303 305 306 305 306 307 307 309 308 309 311 310 310 312 311 311 313 313 313 312 312 313 313 313 314 314 313 314 313 312 313 314 313 313 314 314 314 315 316 317 318 318 317 318 318 320 319 319 321 324 324 324 324 325 325 324 325 327 326 323 322 325 325 322 321 322 322 321 322 321 321 321 320 321 321 321 322 323
302 301 300 302 303 303 303 303 303 303 304 305 305 305 306 307 307 309 309 309 311 311 311 311 311 312 313 313 313 312 311 313 314 314 314 314 313 314 314 313 314 315 314 314 314 314 314 315 317 317 317 318 319 319 319 319 320 320 320 321 323 324 324 324 324 324 326 327 325 323 322 324 325 323 321 322 321 321 322 321 322 321 320 321 321 321 322 322
302 301 300 301 302 303 303 303 302 303 304 304 305 306 307 307 307 308 309 308 308 311 312 312 312 313 312 312 313 312 312 313 314 314 314 314 314 314 313 312 314 315 315 314 313 314 314 314 316 317 317 317 319 320 320 320 322 322 321 321 322 324 324 324 323 323 324 325 323 322 323 325 325 322 321 321 321 321 321 320 321 321 320 320 321 321 321 321
302 301 301 301 302 302 303 303 303 303 303 305 306 306 306 306 307 308 308 307 307 310 311 312 313 313 312 313 313 312 312 313 314 315 314 313 314 314 313 312 313 314 314 313 313 314 314 313 314 316 317 317 318 319 320 320 321 322 321 321 322 322 322 322 322 322 321 321 321 321 323 325 324 322 321 321 320 321 320 320 320 320 320 320 320 320 320 320
301 301 301 301 302 302 302 303 303 303 304 304 305 306 306 305 307 308 308 307 308 310 311 312 313 312 313 313 313 312 312 313 314 314 314 314 314 313 313 313 313 312 313 314 313 313 314 314 313 314 316 317 317 317 318 319 321 321 321 321 322 321 320 320 320 320 320 320 321 322 323 325 324 322 320 319 319 320 320 320 320 320 320 320 320 319 319 319
302 301 302 302 302 302 302 303 303 303 304 304 304 307 307 305 306 307 307 307 308 310 312 313 313 313 313 313 313 312 312 313 314 313 314 314 313 313 312 312 313 312 313 314 313 313 313 314 313 313 314 315 316 316 316 318 320 321 321 321 321 320 319 319 320 320 320 321 322 322 324 324 321 320 320 319 320 319 319 320 320 320 320 320 320 320 319 319
302 302 302 302 302 302 302 303 303 304 304 304 305 307 307 306 305 306 307 308 308 310 312 313 313 313 313 313 313 313 312 313 313 313 313 313 312 312 312 312 313 312 312 313 314 313 313 313 314 314 313 313 315 315 315 316 318 320 322 321 320 319 319 321 321 320 320 321 322 321 322 322 321 322 320 320 321 319 319 320 318 319 320 319 320 320 320 320
303 303 303 303 302 302 303 304 304 304 304 305 305 306 307 307 305 306 308 308 308 310 312 313 313 313 312 313 313 313 313 313 313 313 313 312 312 312 311 312 312 312 312 312 313 314 313 313 314 314 313 311 312 314 315 315 315 318 321 321 320 320 319 319 320 321 321 321 321 320 321 321 321 323 322 321 321 320 320 321 319 318 319 319 319 320 320 320
304 303 303 303 303 302 303 304 304 304 304 305 305 306 306 306 306 306 308 308 309 310 312 313 314 313 312 313 313 313 313 313 313 313 313 312 312 312 311 312 312 312 312 311 312 314 314 313 314 314 314 312 311 314 316 315 314 315 318 319 320 320 320 319 319 321 322 321 320 320 320 319 319 320 320 321 321 320 320 321 321 320 319 319 320 320 320 320
304 304 304 304 303 303 303 304 305 305 305 305 306 306 305 305 305 306 307 308 309 310 310 311 312 313 313 312 313 313 312 312 313 312 313 312 312 312 312 312 312 312 312 311 312 313 314 313 314 314 315 315 313 313 314 315 315 314 314 316 319 320 320 320 320 320 320 320 319 319 319 319 318 318 318 319 318 319 320 320 321 320 318 319 320 320 320 320
304 304 304 304 304 303 303 304 305 304 304 305 305 306 305 305 305 306 307 308 309 310 310 309 310 311 313 313 313 313 312 312 313 312 312 313 312 312 312 312 313 312 312 312 312 312 313 313 313 314 316 317 316 313 312 313 314 314 314 315 317 318 319 319 319 319 320 319 319 319 317 317 319 320 319 318 318 319 320 321 321 319 317 319 319 319 320 319
304 303 304 304 304 304 304 305 305 305 305 306 305 306 305 305 305 306 307 308 309 310 309 309 309 310 312 313 313 313 312 312 313 312 312 312 312 312 313 311 312 313 312 313 313 311 313 314 313 315 316 316 316 315 314 315 316 315 314 314 314 315 317 317 317 317 319 319 319 320 318 319 320 321 318 317 318 319 319 319 319 318 317 318 318 318 319 318
304 304 304 304 304 305 305 305 305 305 305 306 305 305 306 305 306 306 306 307 309 309 308 309 310 310 310 311 312 313 312 312 313 313 312 312 312 312 312 311 312 313 312 313 313 311 313 315 313 314 316 315 316 316 315 317 319 317 315 315 314 314 315 316 315 314 315 316 317 318 318 318 318 320 319 317 317 316 316 316 316 316 315 315 315 315 316 317
304 304 305 305 304 305 305 306 306 306 305 305 305 305 306 305 305 306 307 307 307 308 307 306 309 310 311 311 311 312 312 312 312 312 312 312 312 312 312 311 311 312 312 312 313 312 313 315 313 313 314 314 316 316 314 313 315 317 317 317 316 314 314 315 315 314 314 314 314 316 316 316 318 321 319 316 315 314 313 313 314 313 313 313 313 313 314 316
303 305 306 306 305 305 306 306 307 306 305 306 306 306 306 306 306 306 307 307 307 309 308 306 307 309 311 311 312 311 312 312 312 312 312 312 312 311 312 311 311 312 312 312 313 312 312 313 313 313 313 313 314 316 315 313 313 315 316 315 315 316 317 318 317 317 315 315 315 316 315 316 319 320 316 313 313 312 311 311 312 311 312 312 312 312 313 313
303 304 305 306 306 306 306 307 306 306 306 306 306 306 306 306 306 306 306 307 307 308 308 308 307 308 310 312 313 312 312 312 312 312 312 312 313 312 312 312 311 312 312 312 312 312 312 312 312 312 312 313 312 313 314 314 313 313 314 314 314 315 317 318 317 317 316 315 315 316 315 316 317 316 314 312 311 310 309 310 310 310 311 311 311 311 312 312
304 304 303 305 307 306 306 306 306 306 306 306 305 306 306 305 306 306 306 307 307 307 308 308 308 309 310 311 312 311 312 312 312 313 312 312 314 314 312 311 311 311 311 312 312 311 312 313 312 312 312 311 312 314 315 316 315 313 313 314 314 314 315 315 316 316 315 315 315 315 315 315 314 313 312 311 310 310 310 309 309 310 310 311 311 311 312 314
304 304 304 305 306 306 305 305 304 305 306 306 305 305 305 306 306 307 307 307 307 307 308 309 309 309 309 309 310 310 311 312 312 312 312 312 313 314 312 311 311 311 311 312 312 311 312 313 312 312 311 311 314 317 316 315 315 314 314 314 314 314 314 314 314 314 314 315 315 314 313 313 312 310 310 310 310 311 310 309 309 310 310 311 311 312 313 314
303 303 303 303 305 306 306 304 304 304 306 306 306 304 304 305 306 307 307 307 307 307 307 308 309 310 309 309 309 310 311 311 311 311 312 312 313 314 313 312 312 311 311 312 312 311 312 312 312 312 312 311 314 317 316 314 315 315 315 314 314 315 314 314 313 312 312 314 314 313 312 312 311 310 311 311 310 310 310 310 310 310 310 310 311 312 313 313
302 302 302 302 303 305 305 304 304 304 305 306 306 305 305 305 306 307 306 307 308 308 307 307 308 309 309 309 309 310 311 311 311 311 311 312 313 313 313 313 313 311 311 312 312 312 312 312 312 312 312 312 312 314 315 315 315 315 315 314 315 315 315 314 313 312 312 312 312 313 313 312 311 311 312 311 310 310 310 310 310 310 310 311 311 311 311 311
303 303 303 303 304 303 302 303 304 305 305 305 305 305 305 306 306 306 306 307 308 308 307 307 308 308 309 309 309 309 310 310 310 311 311 311 312 312 312 313 313 312 312 312 312 312 312 312 312 312 312 312 312 312 313 314 314 314 314 314 314 315 314 314 314 313 313 313 313 313 313 312 311 311 312 311 310 310 310 310 310 310 310 310 309 308 308 308
304 304 303 304 305 304 302 302 304 305 305 305 305 305 305 306 306 306 307 307 307 308 308 307 307 308 308 308 308 309 310 310 310 311 310 311 311 312 312 312 312 313 312 312 312 312 312 313 313 313 312 311 311 312 313 312 313 313 313 313 313 313 313 313 313 313 314 313 314 314 313 313 312 311 311 311 310 310 310 310 310 309 307 307 306 305 305 305
304 304 304 305 306 305 304 303 304 304 305 305 305 306 306 306 306 306 307 307 307 307 308 307 307 308 307 307 308 309 309 309 310 310 310 310 310 310 311 311 311 312 312 311 312 312 312 312 313 313 312 311 312 313 313 313 313 312 311 311 311 311 312 312 313 313 313 313 313 313 313 312 311 311 312 311 311 311 310 308 307 306 305 304 303 303 303 303
Wind_Speed
31 30 30 30 27 26 25 25 25 25 24 22 20 19 17 16 14 13 12 11 10 9 10 11 11 12 13 14 15 14 15 16 15 15 18 19 16 17 19 18 18 16 13 13 11 10 9 9 9 8 7 7 8 7 6 5 5 4 2 3 4 4 4 4 5 3 2 1 5 8 4 2 3 5 4 1 3 5 5 3 5 5 4 6 6 7 7 5
32 32 33 32 29 27 26 25 25 25 25 25 23 21 19 18 16 15 14 13 12 10 10 10 11 12 12 14 14 14 14 15 15 18 20 17 16 18 21 23 24 20 14 11 7 6 8 8 8 8 7 8 9 7 5 5 8 6 2 3 5 4 5 9 9 6 4 5 4 6 4 1 2 2 2 1 4 6 6 7 10 10 8 9 9 10 9 8
32 33 33 33 32 29 28 27 25 25 25 25 25 23 22 20 18 17 16 14 13 12 10 10 11 11 12 13 12 12 12 13 15 18 18 16 17 18 20 22 24 24 21 17 11 7 8 9 8 9 10 9 10 9 8 7 8 9 6 4 5 6 8 13 15 11 7 8 8 5 2 2 2 3 1 3 6 6 6 5 9 12 15 14 11 10 8 8
31 32 32 33 33 31 30 29 27 26 25 25 25 25 24 22 21 19 17 16 15 14 11 10 10 10 11 10 10 9 7 10 11 11 13 14 15 17 19 20 21 21 21 20 17 12 8 9 9 10 10 8 11 11 9 9 7 8 8 5 7 8 9 12 17 16 9 8 8 8 9 5 4 5 4 4 5 5 5 5 4 2 9 16 13 9 7 7
30 31 31 31 32 32 32 31 29 27 26 25 25 25 26 24 23 21 19 17 16 15 12 11 11 10 9 8 8 5 2 5 3 6 8 9 11 14 17 17 18 19 19 18 17 15 11 9 10 11 11 9 10 10 10 12 10 7 7 9 12 12 9 13 19 14 7 8 7 6 7 9 10 6 5 6 4 6 6 7 8 8 4 7 8 7 8 8
30 30 31 31 31 32 32 33 31 29 27 26 24 24 26 26 24 22 21 19 18 16 13 12 11 9 8 7 7 5 5 2 4 3 3 3 8 10 12 13 15 16 17 17 15 13 13 12 12 13 12 9 9 9 10 15 13 7 8 12 16 16 13 14 17 13 8 6 4 5 8 12 12 8 8 9 9 10 13 9 6 6 2 1 4 8 9 10
31 31 31 31 31 31 31 32 33 31 29 28 26 24 25 26 25 24 23 21 20 18 14 13 11 10 8 7 7 8 12 10 5 3 1 3 9 8 6 4 10 15 16 17 16 13 13 14 15 15 12 8 9 11 13 16 16 10 7 11 16 19 19 17 16 17 15 7 6 9 11 14 12 8 8 12 13 12 13 13 9 8 6 5 6 11 12 12
31 31 31 31 31 31 31 32 33 32 30 29 27 25 25 25 25 26 25 23 22 20 16 13 11 11 9 9 9 9 17 20 11 5 2 4 9 11 9 4 4 15 19 16 16 15 14 15 17 15 10 9 10 11 14 14 15 12 9 12 15 17 19 19 16 19 19 13 14 12 10 15 16 12 13 15 15 14 12 13 12 11 11 10 9 12 15 15
31 31 31 31 31 31 31 31 31 32 31 30 29 27 26 25 25 25 25 25 24 21 18 15 13 12 12 12 10 11 19 20 15 14 8 4 5 7 6 4 1 11 19 16 15 15 14 15 16 16 11 12 13 12 14 11 8 11 13 15 16 15 17 19 18 19 18 15 14 11 10 17 18 14 15 17 18 18 17 17 17 18 18 17 14 13 15 18
32 31 31 31 31 31 31 31 31 31 31 31 30 29 28 26 24 24 26 27 25 22 20 17 14 14 15 15 12 11 12 10 10 16 16 10 5 1 3 0 1 8 16 15 15 16 16 13 13 15 14 14 14 13 14 12 8 12 16 16 17 17 18 20 20 21 20 16 16 14 11 16 18 12 9 13 13 13 17 17 16 16 19 20 18 16 16 18
33 32 32 31 31 31 31 31 31 30 30 31 31 30 30 28 25 24 25 26 25 24 22 20 16 16 18 17 17 13 6 5 5 7 16 18 14 7 4 3 3 9 13 14 15 16 16 14 11 11 10 9 11 13 15 16 15 16 16 14 16 17 17 18 17 18 17 13 16 16 12 14 16 11 11 15 14 12 15 16 15 15 16 17 17 17 16 18
33 33 32 32 31 31 31 31 30 30 29 30 31 31 31 29 27 24 24 26 26 26 24 21 19 19 19 20 27 21 6 3 4 4 11 18 18 14 9 6 7 12 13 13 14 15 14 13 12 12 9 6 7 8 9 11 16 18 14 10 12 13 14 16 16 17 14 9 13 12 9 11 11 13 18 23 22 20 22 24 24 24 20 18 18 18 18 18
33 33 33 32 32 32 32 31 30 29 29 29 30 31 31 30 29 26 25 26 26 26 26 23 21 21 20 23 30 26 14 7 6 7 10 13 14 15 14 10 8 12 15 15 14 14 14 13 12 14 14 11 7 4 4 5 12 14 12 8 7 9 10 13 16 18 15 12 13 8 5 7 8 15 23 27 28 26 26 27 27 27 25 23 21 20 20 19
33 32 32 32 32 32 32 31 30 29 29 28 28 29 30 29 29 28 26 26 24 24 26 25 24 22 23 27 26 21 19 15 13 12 9 9 8 8 13 13 10 10 11 15 15 15 16 15 13 12 14 14 11 7 7 6 8 7 7 7 6 7 6 9 15 16 13 15 18 12 6 8 6 12 20 24 27 27 26 26 25 26 25 24 23 23 22 21
32 32 32 32 32 31 31 31 31 29 29 28 28 28 28 28 28 28 27 26 25 23 25 27 26 23 20 26 24 18 19 20 22 21 13 8 6 6 8 10 12 10 6 8 11 13 16 17 14 9 11 14 13 9 5 5 5 4 6 5 5 7 6 7 13 15 12 13 21 15 6 7 8 14 22 24 24 23 22 23 23 22 22 22 21 21 22 22
33 32 32 31 31 31 31 31 31 30 29 28 28 27 26 26 26 27 27 27 26 23 24 26 30 28 15 14 18 20 23 26 27 23 18 13 7 6 7 6 9 9 7 8 9 10 11 13 12 9 9 9 8 5 3 5 5 5 6 5 5 6 6 6 9 17 16 10 16 17 7 3 6 13 21 22 22 22 20 20 20 19 20 20 20 20 21 21
33 32 32 31 30 31 31 31 31 30 29 28 28 26 26 25 25 25 25 25 24 23 24 25 30 32 16 10 14 21 27 27 26 24 22 19 11 8 9 7 8 11 10 11 11 9 8 8 8 7 8 7 6 5 5 7 6 4 6 6 7 7 7 5 4 12 17 12 11 14 12 8 6 10 17 18 18 20 19 20 21 19 20 21 21 22 21 20
33 32 32 31 30 30 31 30 30 30 29 28 27 26 25 25 24 24 24 25 23 21 23 25 26 23 16 18 16 17 25 25 26 26 23 21 15 9 10 9 8 12 10 7 9 10 8 7 5 3 5 7 7 8 8 7 6 7 7 5 6 8 9 8 6 5 10 11 10 10 11 11 9 11 18 21 22 22 19 17 19 20 21 21 21 21 20 20
32 33 32 31 30 31 31 30 30 30 29 28 26 25 24 23 23 25 27 26 24 17 12 20 28 14 1 15 21 13 18 23 23 25 23 22 19 12 13 12 11 13 11 6 8 12 9 5 5 5 6 10 10 11 11 6 5 8 8 6 7 8 8 9 9 8 6 6 9 10 11 10 10 10 14 19 23 26 24 20 19 20 22 22 22 23 23 22
32 32 33 32 31 31 31 31 31 30 29 27 26 25 22 21 16 17 27 30 33 31 17 17 33 22 7 2 23 19 14 20 22 25 25 23 22 18 16 14 12 12 10 6 7 12 12 5 6 10 10 11 12 13 13 9 9 9 7 8 9 7 7 7 8 9 9 7 7 10 11 11 12 10 12 17 20 21 23 22 22 24 24 24 24 26 26 25
33 32 32 33 31 31 32 32 30 30 30 28 29 28 25 26 15 7 22 29 34 42 32 18 26 31 8 5 18 26 20 20 22 24 24 24 25 19 15 15 10 7 10 10 7 10 11 8 11 14 10 8 10 12 13 12 13 12 8 8 8 6 6 6 6 5 6 6 6 8 11 13 12 10 11 16 16 15 18 20 22 25 26 27 26 26 27 27
33 32 32 33 31 31 32 33 31 29 30 30 33 33 32 36 24 7 12 17 24 38 40 31 25 30 23 5 12 26 22 19 20 21 23 25 26 18 15 16 9 6 10 11 8 7 8 11 15 13 8 8 10 10 12 14 13 10 8 8 8 7 5 6 8 6 4 4 4 5 10 11 11 11 12 14 16 17 22 25 25 26 26 27 27 26 27 27
33 32 32 33 32 31 31 32 32 30 31 33 36 38 36 37 29 13 7 5 14 31 40 41 33 30 30 16 13 26 23 18 19 23 27 27 27 24 18 14 10 9 9 9 10 8 8 12 13 12 10 10 10 10 11 11 10 9 8 7 8 7 5 5 5 6 6 5 6 6 9 9 9 10 10 15 21 22 26 29 29 29 28 28 28 27 27 27
32 32 32 34 33 32 31 31 32 33 34 35 37 39 36 32 28 23 14 3 6 19 32 41 38 33 33 22 18 26 23 21 22 25 30 30 28 24 18 16 13 9 9 13 15 12 11 10 8 11 14 12 10 12 12 9 8 10 10 10 9 7 7 7 5 6 7 7 8 6 7 9 9 10 11 13 19 22 26 28 29 31 32 31 29 28 28 28
31 32 31 33 34 33 31 30 34 36 35 37 39 38 35 30 27 28 19 5 5 8 16 29 33 33 35 26 22 25 19 20 25 29 34 35 31 21 15 18 14 9 13 16 15 12 13 13 10 11 13 13 12 12 12 10 7 8 11 12 11 8 9 10 7 6 5 6 5 2 7 8 6 10 12 10 12 17 20 22 26 30 32 31 29 29 31 31
31 32 30 32 34 33 32 31 36 38 35 38 41 36 33 29 28 28 16 3 6 7 9 19 22 24 34 30 26 26 13 14 24 31 35 35 32 22 13 14 11 11 15 14 10 6 9 15 13 10 11 14 14 11 12 12 8 8 9 10 11 10 11 11 8 6 4 5 2 2 5 8 4 8 11 9 10 13 14 15 20 26 28 29 29 30 32 32
31 32 31 31 32 34 33 33 37 37 34 38 41 36 31 29 30 25 12 4 7 10 11 16 17 20 31 33 34 23 5 11 21 26 35 34 29 22 11 10 9 10 12 9 7 6 9 14 13 12 11 10 11 10 11 11 8 8 5 3 8 11 12 11 9 8 6 4 3 2 4 7 10 10 8 8 10 10 11 11 13 18 23 26 30 33 33 31
33 33 33 31 32 34 36 35 34 34 38 39 36 34 29 29 31 19 7 6 5 12 11 14 16 20 27 34 41 25 8 20 17 16 33 34 29 23 11 11 11 10 13 11 8 9 12 15 14 14 11 8 10 11 11 12 10 8 1 3 2 3 4 5 5 7 5 4 6 7 5 5 13 11 5 7 11 11 12 12 10 15 19 23 27 31 32 30
35 35 35 33 32 34 37 36 35 36 38 33 27 28 30 31 27 11 4 6 3 6 8 18 19 17 21 28 35 27 19 21 14 19 34 33 31 21 9 14 15 11 14 12 10 9 9 15 18 14 10 9 10 9 10 11 10 8 3 2 1 3 4 3 2 2 3 4 9 10 8 6 13 11 4 5 9 8 9 9 10 16 23 27 28 28 28 29
36 35 35 34 33 34 36 39 41 38 33 28 25 27 31 30 18 6 8 6 2 2 7 18 22 23 25 20 19 23 23 15 14 26 30 27 31 22 9 14 12 6 10 11 10 10 8 12 14 11 11 11 9 9 10 10 9 7 4 4 2 0 2 3 2 2 2 6 12 15 13 10 11 10 4 5 7 6 7 7 7 13 20 25 28 27 26 27
37 37 36 36 38 37 35 41 45 40 33 29 29 31 29 19 7 6 9 2 0 6 7 9 18 26 28 18 11 18 19 11 14 23 18 15 22 17 8 9 5 2 7 8 9 11 10 7 6 7 13 12 7 8 9 6 6 6 5 5 2 1 1 2 0 1 3 8 11 14 14 12 11 10 2 3 7 7 6 7 7 9 15 20 22 23 24 25
37 38 38 38 41 38 38 43 44 41 37 30 33 35 22 8 5 7 4 4 3 8 9 9 13 19 25 21 14 16 17 11 14 18 14 11 12 12 10 9 7 6 6 6 7 9 9 8 4 3 9 12 8 6 6 3 3 6 5 6 5 3 3 3 4 4 7 9 8 8 10 10 10 12 11 12 12 10 11 13 10 8 12 16 15 15 19 22
38 39 39 40 42 42 44 44 39 39 38 34 35 30 13 7 8 8 6 5 4 5 9 14 15 17 23 20 14 17 17 12 13 15 14 14 13 13 13 11 12 11 7 8 9 7 7 9 10 5 4 12 12 7 7 6 5 7 6 7 8 5 5 7 6 6 8 8 7 8 8 7 4 9 17 18 17 17 23 27 23 19 19 15 11 11 14 17
40 39 41 42 44 46 46 42 38 38 38 39 31 18 10 9 6 10 13 7 2 2 10 14 17 19 20 16 14 18 15 9 14 15 12 14 12 11 13 12 14 10 5 7 8 8 9 8 11 11 7 11 14 10 8 7 6 7 6 5 7 6 6 8 6 7 7 5 5 8 7 6 5 7 13 13 17 22 25 29 31 33 34 29 23 23 23 23
41 41 44 45 46 48 46 45 42 38 40 38 19 7 10 10 6 9 11 6 0 3 9 14 19 18 16 14 14 20 17 10 15 15 12 13 11 11 13 12 14 12 6 6 6 7 10 7 8 16 15 13 13 14 11 7 5 6 6 5 8 9 8 5 3 5 4 4 3 5 4 4 3 6 8 7 13 16 17 23 28 29 33 34 32 31 32 32
42 43 46 47 50 51 49 48 44 39 41 32 10 7 10 8 8 8 7 9 6 6 9 13 16 14 13 12 12 18 18 11 14 12 8 11 12 13 15 11 15 16 10 8 6 6 9 7 7 14 16 15 16 15 13 10 5 4 7 9 7 6 6 4 6 5 4 6 5 4 6 5 2 7 8 8 12 10 8 13 16 19 24 26 28 33 36 34
44 45 47 49 52 51 50 51 45 43 43 23 5 9 8 6 12 8 6 10 9 9 11 10 11 12 13 12 11 18 16 10 14 12 6 8 10 13 16 13 16 19 15 11 6 5 7 6 7 12 13 20 21 14 10 12 10 3 5 10 5 2 1 1 4 5 7 9 6 7 10 7 3 4 5 9 13 11 9 10 11 17 21 21 25 29 29 27
48 46 47 52 54 52 51 49 46 46 38 16 8 14 9 6 13 11 10 12 10 12 12 8 8 10 14 13 11 18 18 11 13 13 10 8 7 14 19 14 16 21 21 16 6 3 6 3 6 11 12 15 16 10 6 12 17 11 5 6 5 0 3 4 3 4 7 8 6 8 10 7 6 5 4 7 10 9 9 9 7 9 13 19 27 26 22 23
49 39 39 53 57 53 51 48 49 46 25 7 10 16 9 7 12 16 18 16 11 12 11 9 8 7 11 13 11 17 19 16 15 12 11 9 5 15 22 14 14 21 24 20 8 2 5 3 3 9 12 9 8 7 6 9 14 13 8 3 2 1 4 5 3 3 5 7 6 7 8 5 5 6 6 9 10 8 6 5 5 6 11 13 10 8 7 10
49 27 28 55 59 53 53 49 45 33 11 5 11 13 10 9 12 20 26 22 12 10 10 10 10 7 9 12 13 14 15 15 17 12 10 10 6 11 20 15 12 18 23 21 11 3 3 4 4 6 9 8 6 8 11 11 9 8 8 7 5 4 2 1 2 2 3 4 5 7 8 5 3 2 2 3 5 5 5 6 5 8 15 19 17 15 13 11
46 16 23 54 56 53 56 42 25 13 7 10 12 11 13 12 12 19 28 27 15 7 7 10 12 9 7 10 12 13 12 12 14 12 8 11 10 8 17 21 15 17 18 14 11 7 3 4 5 4 6 8 6 7 9 9 8 7 9 10 9 8 5 3 6 5 3 3 4 6 7 4 3 2 3 4 5 4 6 6 5 11 17 19 21 21 18 17
36 11 27 50 50 56 52 24 9 9 9 13 14 14 14 11 13 19 25 26 17 6 4 4 12 13 8 8 10 11 12 10 12 13 7 12 14 9 20 31 25 20 18 11 12 12 3 2 4 3 4 5 4 4 4 3 4 2 4 7 9 9 7 8 10 7 6 5 5 6 7 4 2 4 4 3 3 5 9 10 8 12 18 20 23 24 23 21
27 15 29 41 48 61 43 10 8 11 8 14 19 20 17 12 13 18 21 22 15 9 7 4 9 13 10 9 10 11 12 10 13 15 10 11 15 12 21 34 29 19 15 10 11 10 3 2 5 3 1 1 1 2 4 5 5 1 3 5 8 10 10 9 6 4 5 6 5 6 8 5 2 5 5 4 6 9 11 13 12 14 18 21 24 26 26 23
24 18 21 34 53 60 32 6 10 12 9 15 17 20 21 15 15 19 18 18 15 10 10 8 6 8 9 10 11 13 14 11 10 15 13 9 13 16 23 33 28 16 13 13 13 12 8 5 7 6 3 1 1 2 2 2 3 4 5 5 7 10 9 4 2 0 4 7 7 7 7 5 2 5 6 6 8 10 12 14 15 16 19 24 27 26 26 26
18 12 15 37 60 55 30 18 18 14 15 17 15 20 22 13 17 25 22 18 18 13 10 11 9 6 7 9 10 12 16 13 9 12 12 8 8 13 23 34 30 18 16 20 20 15 9 6 8 9 8 9 9 7 6 6 5 3 4 6 8 11 10 5 3 4 6 8 9 9 7 6 5 7 9 9 8 11 16 21 23 21 20 24 26 26 27 27
12 5 4 24 46 43 32 31 24 14 17 18 11 16 22 15 14 26 27 19 19 18 10 9 13 10 8 9 9 11 15 13 7 8 11 10 6 7 20 34 31 22 20 24 24 15 5 4 8 10 11 12 10 6 3 3 6 6 9 11 10 10 10 7 5 7 8 7 9 10 7 5 6 9 11 12 10 11 14 19 24 23 19 18 21 23 24 22
7 6 3 7 19 20 17 19 14 9 17 20 10 11 22 20 12 18 25 17 17 20 10 3 10 13 10 10 9 10 12 11 7 9 13 11 5 5 19 28 25 24 22 21 24 15 3 6 12 13 16 12 5 3 1 4 8 10 12 14 12 11 11 9 8 10 8 5 8 11 8 5 10 13 14 13 12 10 10 14 19 19 16 16 19 22 23 22
2 5 5 3 5 7 11 15 13 9 14 18 13 12 21 23 16 15 16 10 14 20 12 3 7 12 13 14 10 8 11 12 10 10 10 9 6 6 14 16 17 23 20 14 17 12 3 8 14 13 17 14 6 6 4 4 4 4 7 11 12 13 13 13 14 14 12 8 9 12 10 9 12 13 12 12 12 12 15 18 17 16 19 21 23 22 19 17
4 3 3 3 2 2 9 17 19 14 13 14 11 13 20 24 20 15 10 8 12 18 16 12 12 12 12 14 13 10 11 12 11 11 9 11 11 9 10 9 11 19 17 9 10 10 4 7 11 11 14 15 12 9 5 6 5 3 4 6 8 11 14 15 15 15 14 12 9 9 11 12 10 9 10 14 18 19 20 19 18 19 21 19 15 12 12 13
4 4 4 4 3 4 5 9 14 14 13 13 9 10 18 24 23 17 12 14 14 14 17 19 18 16 12 11 14 16 17 16 13 13 13 13 13 11 10 7 7 13 14 9 8 9 7 7 9 9 8 11 13 12 8 7 5 3 5 7 9 12 14 14 13 11 10 10 9 9 10 12 9 8 11 19 24 22 18 16 16 15 11 7 10 13 15 16
4 6 9 7 4 6 7 6 8 9 9 11 10 10 15 21 23 18 12 16 20 18 19 22 21 17 12 10 13 14 18 21 16 15 17 16 15 13 8 6 9 13 12 9 7 8 6 5 5 7 6 9 9 10 10 7 2 4 9 14 16 15 12 11 10 8 9 9 9 9 9 10 10 8 11 17 20 16 12 10 6 4 10 12 14 14 14 15
7 8 14 11 4 6 8 7 7 8 7 8 11 13 16 19 23 20 11 12 18 21 24 26 21 14 10 12 15 15 16 18 16 17 18 15 15 13 10 10 14 14 11 7 5 5 6 5 4 6 7 7 6 9 7 4 2 6 13 17 18 15 11 9 7 9 12 10 7 8 10 10 9 7 9 13 13 10 4 3 6 10 13 13 13 13 13 13
Wind_Direction
255 254 254 254 253 251 249 246 242 241 240 237 237 237 235 238 242 242 242 244 246 249 257 263 267 272 275 276 280 283 285 284 283 276 268 268 260 248 241 237 241 249 252 249 252 267 276 281 279 272 268 273 269 251 237 222 218 238 229 226 247 238 242 245 247 278 281 193 146 130 83 10 115 136 151 236 236 208 207 196 202 193 203 231 226 242 247 236
253 252 252 253 254 253 251 249 245 244 241 236 235 236 235 236 240 242 241 243 245 246 254 261 266 271 273 274 279 283 285 289 290 281 276 277 268 256 249 243 240 238 235 233 234 259 267 261 263 262 254 261 258 235 225 221 209 219 236 239 240 238 263 270 280 321 349 332 10 82 89 28 22 65 123 283 261 222 213 198 193 186 199 221 223 237 248 245
253 251 250 250 252 253 252 251 247 246 245 239 235 234 234 234 236 239 240 243 247 248 249 256 264 268 271 274 277 281 291 303 300 290 286 283 272 262 257 252 249 245 239 234 228 233 257 259 258 260 259 258 250 229 211 216 213 214 222 247 243 246 268 273 284 301 314 316 326 333 287 175 3 323 262 290 299 277 262 232 195 190 200 208 213 226 239 243
252 251 250 249 249 251 251 251 248 246 246 244 239 234 233 233 234 235 236 239 245 248 247 253 262 266 268 271 271 276 313 321 299 281 281 279 273 263 258 255 250 248 243 239 231 222 234 254 251 252 259 261 255 247 229 215 212 212 210 234 249 255 269 271 277 283 294 301 300 313 319 321 313 305 290 289 304 274 282 0 33 115 187 200 209 220 231 245
251 250 249 248 248 249 250 250 248 247 246 245 244 238 235 233 233 233 234 238 242 243 244 250 256 263 263 259 263 252 358 325 253 233 267 275 277 270 264 256 243 237 234 234 230 223 227 239 242 240 241 248 252 254 247 230 228 243 240 247 255 259 267 273 280 293 335 336 328 340 325 308 298 286 266 262 267 262 285 9 20 15 73 183 218 234 236 249
251 250 249 248 248 248 247 248 247 248 247 246 246 242 237 234 233 233 234 237 241 243 240 244 250 255 249 243 246 200 188 233 133 169 242 294 308 298 284 264 237 223 217 219 220 224 230 230 231 231 230 234 238 241 248 237 228 243 257 254 258 264 266 266 274 297 336 348 336 311 295 298 298 286 268 260 260 265 276 300 328 334 351 197 258 255 249 255
251 250 249 247 247 247 246 245 245 247 247 247 247 244 241 238 234 232 233 235 239 243 238 237 243 241 232 226 229 206 217 220 141 109 129 358 341 347 339 275 219 205 198 207 213 217 223 223 223 225 229 230 230 235 245 247 237 232 244 248 253 257 261 260 259 277 288 283 265 259 272 284 282 280 277 270 271 269 269 277 293 302 282 247 234 250 260 264
249 249 249 247 246 246 245 244 243 244 246 246 246 246 243 241 238 232 231 234 236 239 238 234 233 230 219 217 224 223 232 224 195 187 229 336 344 8 23 37 202 194 186 197 208 211 218 221 221 220 228 234 233 235 236 247 248 241 247 251 253 256 261 264 258 264 267 262 269 257 247 264 261 264 270 268 270 271 271 272 274 278 274 258 234 242 257 263
248 247 247 247 246 245 245 244 242 242 243 245 245 245 244 243 242 236 233 233 233 235 236 234 226 221 216 216 224 238 247 240 220 215 226 292 329 18 43 38 331 188 183 192 203 207 215 220 223 223 233 241 241 244 236 237 244 240 245 248 250 253 259 267 265 268 267 253 263 262 243 256 255 257 265 259 259 262 265 267 267 266 263 258 246 239 247 255
248 246 246 246 245 244 244 243 242 241 241 243 244 244 244 244 243 242 238 232 229 231 234 232 222 215 216 217 222 240 255 255 235 221 222 238 253 96 100 51 328 181 182 189 201 207 214 219 223 229 247 257 253 254 244 240 247 248 253 255 251 249 250 258 259 259 264 254 250 255 248 252 252 247 253 251 249 255 255 255 261 263 258 253 246 243 246 246
247 246 245 244 244 244 243 242 242 241 240 241 242 243 243 243 243 244 243 235 226 227 230 228 219 213 216 218 221 230 244 233 225 215 220 227 229 214 174 184 182 182 186 190 201 206 212 222 228 234 245 253 254 262 261 254 255 258 263 271 265 263 261 258 257 252 256 254 246 256 262 255 252 242 244 251 250 250 252 253 255 257 258 253 245 245 246 243
246 245 244 243 242 242 241 241 240 240 240 239 240 242 242 242 242 243 245 242 232 224 226 225 218 213 215 223 226 222 206 200 214 206 220 226 226 223 214 200 187 187 190 195 204 205 210 222 232 240 244 257 250 252 278 269 258 258 256 268 270 270 265 251 252 251 249 248 241 257 276 255 245 243 247 252 250 246 247 250 253 255 254 249 244 244 243 244
245 243 243 242 241 241 240 240 239 239 238 238 238 239 241 241 240 242 243 246 241 228 224 222 217 212 214 228 232 227 216 198 200 204 213 226 229 229 229 222 201 192 191 196 202 203 209 218 231 243 254 273 266 244 323 279 251 255 248 254 266 264 259 242 244 247 242 243 235 231 261 243 232 238 240 245 245 240 240 242 247 253 251 244 241 242 243 246
244 243 243 241 240 240 239 239 237 236 236 237 236 236 238 239 238 241 242 246 247 234 226 223 215 209 218 233 235 231 230 226 222 215 203 217 221 223 232 226 212 205 196 197 203 203 204 209 223 242 251 257 271 303 326 270 240 249 247 244 245 253 257 231 230 232 231 235 224 214 245 244 239 248 245 245 240 232 232 235 240 248 249 245 241 242 246 247
244 243 242 240 239 238 238 238 236 235 234 234 234 234 234 235 236 238 241 243 245 241 231 225 215 206 221 240 239 229 226 226 227 222 209 205 204 202 220 221 216 215 203 198 209 209 203 204 211 231 243 244 266 302 313 265 252 232 240 241 220 238 257 241 227 221 223 222 209 207 245 241 237 250 248 248 245 236 230 228 231 239 244 242 239 241 246 248
243 242 240 239 237 236 237 236 236 234 233 232 232 232 230 231 232 233 239 240 243 244 233 225 214 207 222 245 237 229 219 218 222 221 213 201 193 193 175 180 204 196 192 203 210 212 205 204 207 218 235 234 243 265 261 254 249 223 233 242 229 236 247 246 229 220 222 218 201 205 226 225 222 244 247 246 245 248 249 244 239 237 241 243 243 245 247 248
242 241 239 238 235 235 235 234 235 233 232 231 229 229 228 228 228 230 234 235 240 240 234 234 217 207 218 227 216 220 214 213 215 215 214 203 197 212 185 166 185 180 187 204 207 207 196 191 195 210 227 229 214 204 228 236 226 224 231 237 241 246 251 251 229 213 214 218 210 209 222 232 241 272 278 273 259 251 249 252 250 239 237 241 245 250 248 247
241 240 238 237 235 234 234 233 231 231 231 229 227 227 227 227 228 227 229 228 230 235 239 240 218 201 218 219 203 206 208 210 213 213 214 202 196 216 201 171 166 173 179 197 203 196 186 182 188 205 209 213 212 197 210 218 199 213 222 232 241 239 246 250 257 235 207 213 224 224 231 236 237 254 262 260 261 261 253 250 250 240 237 240 243 248 246 244
240 239 237 236 234 232 232 231 229 229 227 226 225 223 225 228 229 229 228 221 215 218 229 216 202 190 263 214 199 190 204 209 209 209 212 203 194 209 211 188 172 172 169 176 193 187 181 177 188 216 212 202 206 206 211 211 204 223 228 234 238 235 239 234 240 250 227 219 228 232 242 244 240 241 242 240 244 255 260 259 255 246 243 243 243 247 249 246
239 238 237 235 234 231 230 229 227 226 224 223 220 216 217 215 217 230 224 219 216 214 218 208 203 201 47 122 198 185 183 199 199 202 209 202 189 197 207 192 178 180 183 182 175 177 180 192 208 215 215 200 201 212 219 229 244 258 262 251 245 245 248 237 231 223 211 222 231 231 246 251 248 248 250 248 243 244 252 255 252 249 248 245 241 241 244 246
239 235 234 234 233 230 229 228 226 224 222 221 217 213 212 202 193 215 213 218 225 220 223 227 213 209 187 62 194 182 161 176 191 198 203 195 186 187 190 184 179 190 204 200 177 171 182 212 226 216 216 211 209 213 216 227 241 252 262 267 265 256 260 264 266 245 210 224 230 227 244 249 249 252 253 256 255 249 247 248 247 247 249 248 244 240 240 244
239 235 233 233 232 229 228 228 226 223 220 220 218 216 216 210 200 193 204 216 230 226 226 227 224 218 213 206 189 182 167 165 181 190 190 185 184 184 178 180 191 196 196 200 190 176 192 226 228 214 210 220 224 222 219 226 234 241 246 255 260 254 270 272 269 278 265 254 252 247 256 255 251 251 250 249 252 256 255 255 253 249 249 249 247 245 243 243
238 236 234 233 231 228 228 228 226 223 218 218 221 219 219 217 210 208 205 205 231 226 224 224 226 223 219 219 186 182 179 168 172 183 184 181 184 186 179 175 196 201 186 195 202 193 204 228 223 209 213 217 219 223 227 231 230 232 235 240 249 244 254 263 252 255 256 254 257 268 277 273 265 260 252 246 248 254 255 255 257 254 250 249 248 248 246 242
239 235 235 234 231 228 227 228 226 224 220 218 222 223 222 220 215 219 223 261 272 225 222 223 223 220 218 215 193 187 190 185 178 181 184 182 182 186 185 182 189 200 194 197 208 216 223 225 198 197 216 219 214 217 222 233 232 229 229 233 245 240 241 251 253 266 276 265 246 254 279 268 252 253 254 247 248 252 251 252 257 255 253 253 251 250 248 245
237 234 235 233 231 228 226 226 224 223 223 221 223 223 223 221 218 220 220 261 293 213 216 219 217 221 218 212 202 194 197 198 186 183 187 185 180 180 189 191 187 198 202 199 207 224 234 228 204 199 210 211 218 219 213 219 236 239 228 228 241 253 256 258 268 280 282 271 255 247 277 268 222 226 243 239 237 245 244 245 249 250 253 254 252 252 251 249
236 234 233 230 229 228 225 225 223 222 224 224 222 219 219 220 220 217 205 239 253 186 177 194 197 213 212 204 192 188 205 212 189 185 189 190 185 179 181 187 191 206 200 197 207 222 235 228 220 217 208 202 215 226 214 211 228 241 226 216 228 241 252 260 272 280 259 261 302 88 261 276 255 228 241 241 237 239 237 237 241 241 244 248 249 252 252 251
235 232 232 229 226 224 223 223 221 220 221 223 221 216 213 213 216 213 192 240 235 166 162 179 175 190 200 194 182 179 193 177 180 189 188 189 189 186 192 185 190 212 196 190 211 208 217 223 222 221 217 206 211 222 217 211 224 241 232 205 222 227 236 243 245 249 256 279 302 226 240 281 277 251 237 247 254 253 248 244 243 241 240 241 243 246 249 249
234 231 231 228 224 223 223 222 220 218 219 222 220 214 211 212 212 203 185 244 193 141 154 171 175 184 186 184 182 183 165 155 167 194 188 189 189 187 208 200 189 203 193 190 210 204 202 212 216 212 215 219 215 216 210 209 228 240 144 71 283 266 258 258 246 244 252 263 258 236 211 260 272 257 208 233 249 252 255 254 254 254 251 248 246 244 243 244
232 229 229 227 226 225 226 224 221 220 221 221 217 212 209 206 204 193 212 240 141 116 148 156 170 177 163 169 180 187 186 172 166 177 183 191 190 186 214 212 203 201 196 203 216 212 204 207 211 208 211 220 217 218 206 203 226 238 173 123 302 346 358 346 334 301 290 249 245 234 198 214 267 267 208 225 247 240 244 245 241 245 247 249 250 248 243 240
231 230 228 227 226 223 225 226 222 223 222 214 208 206 201 194 188 193 224 219 126 167 165 155 162 158 154 164 181 187 194 190 162 165 177 187 190 193 206 206 215 206 197 213 221 233 240 209 203 204 215 222 221 224 218 211 219 234 235 221 214 107 345 335 0 25 335 255 242 235 214 210 260 272 207 210 250 244 244 251 244 239 239 241 244 246 245 240
231 231 229 227 226 222 221 225 222 219 216 210 204 195 189 186 186 220 213 191 209 188 166 167 162 152 159 169 176 186 194 191 163 164 169 178 189 197 183 185 214 192 194 210 217 239 251 220 185 190 207 212 221 228 227 224 209 207 221 224 225 168 177 297 314 147 246 243 237 233 225 220 245 264 233 204 245 244 248 256 251 248 252 252 247 243 243 241
232 231 230 227 227 224 221 224 222 216 212 211 200 184 176 190 216 227 193 107 222 194 153 167 165 154 164 169 170 181 184 183 175 171 166 164 181 192 186 182 174 171 195 199 200 224 238 237 229 178 193 195 195 211 223 230 188 191 200 201 215 205 187 217 210 210 235 245 242 224 218 221 240 259 260 252 250 251 264 269 270 270 270 267 256 245 243 241
233 231 229 227 227 225 223 224 223 216 211 205 192 178 175 227 208 204 198 173 238 219 161 166 166 160 166 168 170 176 180 183 177 173 170 169 177 187 197 198 183 181 186 182 192 201 220 240 231 218 197 194 193 191 203 208 189 193 193 189 199 197 212 225 217 229 242 249 241 211 214 225 220 249 251 251 251 249 254 263 269 268 269 274 264 250 248 242
232 231 230 228 228 226 224 223 220 218 210 198 189 178 191 223 195 186 201 209 310 185 168 161 158 167 175 174 171 169 176 186 175 175 175 174 180 185 193 204 198 195 174 172 190 192 204 225 213 208 190 178 197 208 198 185 182 196 192 194 206 195 213 224 214 229 243 263 236 194 206 215 179 225 239 236 245 243 239 244 250 251 255 262 261 252 249 249
232 232 229 228 228 225 223 222 218 218 209 196 192 198 198 202 199 197 196 190 59 161 171 163 159 172 184 181 176 173 175 180 174 178 182 178 181 182 186 197 197 193 177 177 188 194 214 224 192 202 197 173 191 212 201 180 181 194 182 196 218 212 219 241 254 239 244 288 247 187 222 230 198 262 260 236 248 244 225 227 235 240 246 251 251 249 248 248
232 229 227 226 226 222 220 219 217 215 205 195 196 222 202 194 199 201 183 180 182 159 167 173 169 176 184 181 184 182 180 176 168 175 191 185 184 183 184 190 191 192 188 182 182 183 209 226 184 192 203 197 197 200 195 197 197 174 186 203 219 222 223 254 283 277 269 269 244 206 248 258 276 284 272 262 266 263 234 226 229 237 243 242 240 242 245 246
227 225 224 224 224 221 218 215 214 211 204 198 219 216 199 200 200 188 173 187 182 159 170 187 181 179 181 182 187 182 180 177 170 175 189 183 186 185 183 191 194 195 197 193 196 181 187 226 203 179 199 212 205 192 190 210 217 199 189 194 182 29 59 189 260 257 249 254 239 226 248 253 250 257 238 238 250 254 249 243 234 234 238 238 237 241 245 249
225 222 221 223 223 219 216 214 212 208 204 202 220 212 199 197 200 188 180 189 185 175 183 197 190 183 184 184 184 178 177 180 177 179 185 182 185 180 178 190 196 196 202 201 208 195 172 223 219 181 191 208 199 185 191 214 218 225 225 174 149 153 203 181 219 236 235 251 249 241 251 247 234 248 260 248 253 259 252 254 259 246 248 249 241 238 245 252
222 217 220 226 224 219 217 214 209 205 203 205 212 211 205 192 200 197 192 191 190 189 196 202 198 199 192 183 173 175 179 182 179 181 190 185 181 184 182 184 189 193 200 201 207 235 179 183 232 190 180 176 173 186 202 207 212 221 236 216 145 190 204 193 218 239 240 259 264 249 247 239 226 233 249 258 271 291 300 324 336 331 335 317 272 244 261 270
214 209 224 226 223 219 214 209 204 201 201 216 207 206 202 196 202 201 198 197 193 194 205 207 203 205 197 184 172 175 183 185 181 185 195 181 164 187 187 180 178 187 196 199 199 227 197 186 219 196 170 161 174 196 203 204 200 200 211 216 206 190 175 217 236 213 227 248 254 252 247 240 239 242 262 301 323 343 7 13 345 340 2 12 20 22 17 17
208 205 231 224 218 211 204 199 200 201 204 212 209 204 196 192 194 197 203 205 200 193 200 210 214 207 195 192 180 173 181 186 185 187 191 180 175 182 185 183 178 177 186 197 198 203 217 192 199 192 171 183 198 192 197 205 195 188 198 203 211 207 189 226 237 212 198 211 226 254 260 235 235 326 21 13 359 14 30 25 6 3 11 11 6 1 358 358
200 203 224 218 210 198 192 190 197 196 207 209 206 204 187 177 190 193 198 204 203 194 166 207 226 214 195 202 198 181 181 184 189 191 188 186 188 184 182 185 182 172 174 189 197 192 162 129 185 198 186 192 178 126 97 101 124 149 215 201 207 212 198 215 232 224 220 223 221 252 265 240 244 332 7 16 0 13 16 15 16 7 0 352 346 343 338 335
193 206 213 209 198 188 182 189 202 189 209 204 202 205 190 176 195 192 191 197 198 197 185 192 230 220 205 198 199 193 188 186 190 191 187 189 195 189 179 182 181 172 170 181 190 182 130 125 190 206 226 258 21 54 42 58 92 103 253 209 200 211 211 213 225 231 236 234 223 248 260 241 245 316 326 341 358 0 357 354 349 342 339 334 327 324 323 321
185 190 189 189 188 183 177 194 199 188 198 193 196 203 194 189 195 190 192 196 191 191 196 197 215 227 219 199 194 195 190 191 198 193 189 188 192 186 175 178 181 176 176 181 176 174 174 175 187 190 191 224 282 302 298 231 182 201 223 213 200 205 205 184 104 118 242 236 231 246 256 245 265 319 320 338 357 344 328 326 324 319 318 316 311 310 311 307
170 176 168 175 179 180 184 194 193 194 194 189 195 195 189 195 200 193 191 193 194 193 195 199 197 216 234 212 202 199 191 189 190 190 194 184 180 183 174 177 183 185 189 183 170 169 180 184 187 186 189 199 204 218 230 212 194 196 204 205 207 201 189 168 165 212 227 229 232 241 247 254 291 321 318 321 334 320 310 310 308 305 305 305 304 307 310 306
158 172 161 169 173 178 192 195 191 195 192 187 196 189 183 188 199 196 192 190 196 195 191 199 191 195 228 220 213 213 202 196 183 177 189 179 170 186 175 177 183 187 184 174 165 164 173 198 199 195 202 207 200 211 244 152 156 186 200 201 208 204 194 192 209 223 225 226 236 240 237 255 288 295 293 296 299 295 296 297 296 298 303 304 307 312 313 311
161 174 165 164 169 174 189 193 191 196 187 184 184 179 182 182 175 190 195 192 190 188 187 205 185 190 208 205 212 219 204 202 196 180 183 175 155 166 170 175 184 185 175 164 166 167 150 205 204 207 217 217 167 154 216 119 159 189 194 196 201 198 194 198 213 222 223 225 241 241 230 240 265 269 273 279 280 275 273 273 280 293 307 313 312 309 306 310
135 175 181 167 162 165 174 182 185 182 181 184 181 170 178 179 171 177 189 185 181 182 183 216 204 199 198 193 202 207 194 199 200 185 176 158 131 143 163 171 182 180 170 161 172 169 143 212 207 204 219 221 175 154 153 111 135 163 173 188 194 192 192 200 214 220 215 217 237 244 240 240 250 259 262 259 255 254 261 269 280 297 305 303 300 299 307 325
95 115 151 149 119 129 165 172 173 172 177 183 182 175 176 179 177 172 163 158 179 187 188 198 208 206 200 201 206 199 189 193 191 184 174 158 154 153 158 171 182 178 172 167 180 175 164 215 210 198 214 225 215 205 178 138 137 126 164 192 196 198 201 205 215 219 217 223 235 241 250 251 243 244 251 253 257 260 266 276 289 298 300 301 307 323 351 4
115 122 136 133 107 81 112 153 166 170 175 177 181 184 181 180 178 174 166 166 175 186 192 199 205 201 196 208 217 210 197 190 186 181 167 155 162 166 165 174 175 171 174 173 179 185 189 207 199 183 211 232 222 224 229 205 192 202 211 213 209 211 213 211 215 219 219 228 230 228 251 260 245 232 245 257 264 265 270 280 288 296 312 354 27 27 21 12
155 164 166 154 124 124 124 129 156 164 173 178 178 175 180 183 178 171 173 181 180 178 188 201 205 197 188 204 227 226 200 186 183 181 172 164 171 174 165 171 168 163 172 178 174 180 191 201 175 161 209 234 210 208 226 227 251 282 253 235 221 215 215 213 214 213 212 220 223 219 237 251 244 231 236 251 261 266 275 287 295 16 49 51 48 38 26 15
160 163 167 165 142 139 146 139 151 166 176 179 173 170 178 183 177 170 170 191 193 187 189 197 199 192 190 199 216 233 216 193 181 176 173 160 153 144 120 139 163 162 162 166 160 169 178 181 161 160 201 230 190 176 183 133 90 263 252 238 224 218 217 218 219 218 214 212 213 216 227 238 239 226 223 242 254 258 281 34 71 74 66 58 54 52 43 32